TimeCDT,TemperatureF,Dew PointF,Humidity,Sea Level PressureIn,VisibilityMPH,Wind Direction,Wind SpeedMPH,Gust SpeedMPH,PrecipitationIn,Events,Conditions,WindDirDegrees,DateUTC
12:53 AM,77.0,66.0,69,29.76,9.0,South,15.0,23.0,N/A,,Clear,180,2013-05-20 05:53:00
1:53 AM,75.0,66.0,73,29.74,9.0,South,13.8,25.3,N/A,,Clear,180,2013-05-20 06:53:00
3:35 AM,73.4,64.4,73,29.80,9.0,Calm,Calm,-,N/A,,Mostly Cloudy,0,2013-05-20 08:35:00
3:53 AM,73.9,64.9,73,29.78,9.0,Variable,3.5,-,N/A,,Overcast,0,2013-05-20 08:53:00
4:53 AM,73.0,64.9,76,29.79,9.0,South,4.6,-,N/A,,Overcast,170,2013-05-20 09:53:00
5:19 AM,73.4,64.4,73,29.83,9.0,SE,4.6,-,0.00,Thunderstorm,Thunderstorm,140,2013-05-20 10:19:00
5:35 AM,71.6,64.4,78,29.82,9.0,South,11.5,16.1,0.00,Thunderstorm,Scattered Clouds,170,2013-05-20 10:35:00
5:37 AM,71.6,64.4,78,29.82,9.0,South,10.4,-,0.00,Thunderstorm,Scattered Clouds,170,2013-05-20 10:37:00
6:00 AM,71.6,64.4,78,29.83,9.0,Variable,6.9,-,N/A,,Clear,0,2013-05-20 11:00:00
7:53 AM,72.0,64.9,78,29.85,8.0,South,5.8,-,N/A,,Overcast,180,2013-05-20 12:53:00
8:53 AM,73.0,64.9,76,29.84,8.0,SSE,5.8,-,N/A,,Overcast,160,2013-05-20 13:53:00
9:53 AM,73.0,64.9,76,29.83,7.0,SSE,4.6,-,N/A,,Overcast,150,2013-05-20 14:53:00
10:31 AM,73.4,64.4,73,29.86,7.0,South,6.9,-,0.11,,Overcast,190,2013-05-20 15:31:00
10:53 AM,73.9,66.0,76,29.83,7.0,South,5.8,-,0.11,,Overcast,180,2013-05-20 15:53:00
11:53 AM,73.9,66.0,76,29.83,7.0,South,4.6,-,N/A,,Overcast,180,2013-05-20 16:53:00
12:53 PM,75.9,66.9,74,29.82,7.0,South,8.1,-,N/A,,Overcast,170,2013-05-20 17:53:00
1:53 PM,77.0,68.0,74,29.81,7.0,SSE,6.9,-,N/A,,Overcast,160,2013-05-20 18:53:00
2:53 PM,80.1,69.1,69,29.79,7.0,South,8.1,18.4,N/A,,Overcast,170,2013-05-20 19:53:00
3:53 PM,77.0,69.1,76,29.77,6.0,SSE,6.9,-,N/A,,Haze,150,2013-05-20 20:53:00
4:53 PM,77.0,69.1,76,29.73,6.0,SSE,6.9,-,N/A,,Haze,160,2013-05-20 21:53:00
5:53 PM,78.1,69.1,74,29.74,6.0,South,6.9,-,N/A,,Haze,180,2013-05-20 22:53:00
6:53 PM,78.1,68.0,71,29.72,7.0,South,5.8,-,N/A,,Mostly Cloudy,170,2013-05-20 23:53:00
7:53 PM,77.0,68.0,74,29.73,7.0,South,3.5,-,N/A,,Overcast,190,2013-05-21 00:53:00
9:53 PM,75.0,68.0,79,29.79,8.0,Calm,Calm,-,N/A,,Overcast,0,2013-05-21 02:53:00
10:08 PM,73.4,66.2,78,29.84,8.0,WNW,9.2,-,N/A,Thunderstorm,Thunderstorm,300,2013-05-21 03:08:00
10:12 PM,71.6,64.4,78,29.87,1.8,Variable,6.9,20.7,0.15,Rain-Thunderstorm,Heavy Thunderstorms and Rain,0,2013-05-21 03:12:00
10:22 PM,66.2,60.8,83,29.87,3.0,North,8.1,-,0.19,Rain-Thunderstorm,Thunderstorms and Rain,350,2013-05-21 03:22:00
10:53 PM,64.0,62.1,93,29.83,9.0,Calm,Calm,-,0.29,Thunderstorm,Thunderstorm,0,2013-05-21 03:53:00
11:53 PM,63.0,60.1,90,29.87,7.0,SW,13.8,21.9,0.20,Rain,Light Rain,230,2013-05-21 04:53:00